,,PA_Meas_PMT16A,,PR_Meas_QMR101_102,,RH_Meas_QMH101,,SR_Meas_QMS101,,TA_Meas_QMH101,,GenWind,,GenWind,
time,status,PA,status,PR,status,RH,status,SR,status,TA,status,DirAvg,status,SpdAvg,
2016-10-02, 14:32:04,VALID,919.198,VALID,0,INVALID,114.206,VALID,282.678,VALID,21.3608,VALID,21,VALID,0,
2016-10-02, 14:33:04,VALID,919.172,VALID,0,INVALID,113.734,VALID,167.501,VALID,21.4567,VALID,11,VALID,0,
2016-10-02, 14:35:04,VALID,919.19,VALID,0,INVALID,112.987,VALID,289.232,VALID,21.6144,VALID,359,VALID,0,
2016-10-02, 14:36:04,VALID,919.189,VALID,0,INVALID,112.43,VALID,283.107,VALID,21.6908,VALID,20,VALID,0,
2016-10-02, 14:37:04,VALID,919.234,VALID,0,INVALID,112.369,VALID,277.198,VALID,21.7883,VALID,6,VALID,1.07031,
2016-10-02, 14:38:04,VALID,919.245,VALID,0,INVALID,110.631,VALID,280.421,VALID,21.8859,VALID,344,VALID,1.03086,
2016-10-02, 14:39:04,VALID,919.268,VALID,0,VALID,104,VALID,268.495,VALID,21.964,VALID,8,VALID,1.93516,
2016-10-02, 14:40:04,VALID,919.256,VALID,0,VALID,104,VALID,297.075,VALID,22.0437,VALID,358,VALID,1.33945,
2016-10-02, 14:41:04,VALID,919.27,VALID,0,VALID,98.1667,VALID,324.902,VALID,22.042,VALID,8,VALID,1.68125,
2016-10-02, 14:42:04,VALID,919.314,VALID,0,VALID,104,VALID,262.909,VALID,22.0208,VALID,356,VALID,1.2957,
2016-10-02, 14:43:04,VALID,919.315,VALID,0,VALID,104,VALID,273.33,VALID,22.0827,VALID,6,VALID,1.43203,
2016-10-02, 14:44:04,VALID,919.29,VALID,0,VALID,100.393,VALID,252.164,VALID,22.1022,VALID,338,VALID,1.55781,
2016-10-02, 14:45:04,VALID,919.337,VALID,0,VALID,101.719,VALID,282.355,VALID,22.1217,VALID,3,VALID,1.16758,
2016-10-02, 14:46:04,VALID,919.322,VALID,0,VALID,103.13,VALID,316.737,VALID,22.1998,VALID,31,VALID,1.30547,
2016-10-02, 14:47:04,VALID,919.352,VALID,0,VALID,104,VALID,218.535,VALID,22.2779,VALID,30,VALID,1.74336,
2016-10-02, 14:48:04,VALID,919.406,VALID,0,VALID,104,VALID,197.155,VALID,22.3542,VALID,30,VALID,1.21289,
2016-10-02, 14:49:04,VALID,919.406,VALID,0,VALID,103.602,VALID,166.534,VALID,22.4323,VALID,24,VALID,1.28125,
2016-10-02, 14:50:04,VALID,919.399,VALID,0,VALID,92.0299,VALID,164.063,VALID,22.3933,VALID,13,VALID,1.4918,
2016-10-02, 14:51:04,VALID,919.369,VALID,0,VALID,90.4976,VALID,217.998,VALID,22.2762,VALID,358,VALID,1.87031,
2016-10-02, 14:52:04,VALID,919.401,VALID,0,VALID,99.4932,VALID,207.039,VALID,22.1396,VALID,14,VALID,2.11211,
2016-10-02, 14:53:04,VALID,919.38,VALID,0,VALID,98.3116,VALID,178.675,VALID,21.9835,VALID,5,VALID,1.84766,
2016-10-02, 14:54:04,VALID,919.423,VALID,0,VALID,104,VALID,178.46,VALID,21.8664,VALID,345,VALID,1.16289,
2016-10-02, 14:55:04,VALID,919.406,VALID,0,VALID,104,VALID,178.46,VALID,21.8257,VALID,345,VALID,1.0168,
2016-10-02, 14:56:04,VALID,919.414,VALID,0,INVALID,111.256,VALID,185.443,VALID,21.8257,VALID,47,VALID,2.01016,
2016-10-02, 14:57:04,VALID,919.407,VALID,0,INVALID,111.188,VALID,198.981,VALID,21.8062,VALID,9,VALID,1.78437,
2016-10-02, 14:58:04,VALID,919.389,VALID,0,INVALID,111.37,VALID,213.593,VALID,21.8062,VALID,7,VALID,1.44531,
2016-10-02, 14:59:04,VALID,919.421,VALID,0,INVALID,110.318,VALID,226.701,VALID,21.8274,VALID,1,VALID,1.33359,
2016-10-02, 15:00:04,VALID,919.409,VALID,0,INVALID,112.362,VALID,234.329,VALID,21.8452,VALID,308,VALID,0.339844,
2016-10-02, 15:01:04,VALID,919.451,VALID,0,INVALID,112.735,VALID,242.602,VALID,21.964,VALID,1,VALID,0,
2016-10-02, 15:02:04,VALID,919.487,VALID,0,VALID,104,VALID,262.801,VALID,21.9818,VALID,331,VALID,0,
2016-10-02, 15:03:04,VALID,919.463,VALID,0,VALID,104,VALID,334.787,VALID,22.0225,VALID,24,VALID,1.475,
2016-10-02, 15:04:04,VALID,919.475,VALID,0,INVALID,109.03,VALID,357.457,VALID,22.1184,VALID,334,VALID,0,
2016-10-02, 15:05:04,VALID,919.537,VALID,0,VALID,104,VALID,281.603,VALID,22.3152,VALID,11,VALID,0,
2016-10-02, 15:06:04,VALID,919.548,VALID,0,VALID,104,VALID,255.817,VALID,22.5689,VALID,11,VALID,0,
2016-10-02, 15:07:04,VALID,919.548,VALID,0,VALID,98.0066,VALID,233.685,VALID,22.8031,VALID,343,VALID,0,
2016-10-02, 15:08:04,VALID,919.576,VALID,0,VALID,89.5065,VALID,253.239,VALID,22.9575,VALID,347,VALID,0,
2016-10-02, 15:09:04,VALID,919.558,VALID,0,VALID,86.9146,VALID,326.191,VALID,23.0941,VALID,37,VALID,0,
2016-10-02, 15:10:04,VALID,919.585,VALID,0,VALID,84.5132,VALID,338.869,VALID,23.1722,VALID,7,VALID,0,
2016-10-02, 15:11:04,VALID,919.599,VALID,0,VALID,85.5576,VALID,325.654,VALID,23.0941,VALID,359,VALID,0,
2016-10-02, 15:12:04,VALID,919.6,VALID,0,VALID,84.2083,VALID,356.275,VALID,23.1136,VALID,355,VALID,0,
2016-10-02, 15:13:04,VALID,919.64,VALID,0,VALID,83.0724,VALID,472.526,VALID,23.1722,VALID,335,VALID,0,
2016-10-02, 15:14:04,VALID,919.622,VALID,0,VALID,83.5679,VALID,297.505,VALID,23.3088,VALID,344,VALID,0,
2016-10-02, 15:15:04,VALID,919.637,VALID,0,VALID,81.2961,VALID,349.613,VALID,23.3674,VALID,334,VALID,1.32891,
2016-10-02, 15:16:04,VALID,919.639,VALID,0,VALID,83.2782,VALID,253.024,VALID,23.3283,VALID,292,VALID,0,
2016-10-02, 15:17:04,VALID,919.639,VALID,0,VALID,82.7217,VALID,270.322,VALID,23.3265,VALID,3,VALID,0,
2016-10-02, 15:18:04,VALID,919.69,VALID,0,VALID,82.1042,VALID,247.222,VALID,23.2875,VALID,337,VALID,0,
2016-10-02, 15:19:04,VALID,919.727,VALID,0,VALID,82.6912,VALID,243.032,VALID,23.2307,VALID,347,VALID,2.11484,
2016-10-02, 15:20:04,VALID,919.749,VALID,0,VALID,83.7432,VALID,240.024,VALID,23.0746,VALID,356,VALID,1.22148,
2016-10-02, 15:21:04,VALID,919.75,VALID,0,VALID,84.7876,VALID,232.61,VALID,23.0356,VALID,359,VALID,0.859766,
2016-10-02, 15:22:04,VALID,919.773,VALID,0,VALID,86.541,VALID,229.387,VALID,23.0338,VALID,28,VALID,0.0195313,
2016-10-02, 15:23:04,VALID,919.809,VALID,0,VALID,84.6733,VALID,258.611,VALID,23.0924,VALID,26,VALID,0.748047,
2016-10-02, 15:24:04,VALID,919.778,VALID,0,VALID,86.8764,VALID,270.429,VALID,23.1314,VALID,25,VALID,0.196094,
2016-10-02, 15:25:04,VALID,919.812,VALID,0,VALID,87.3262,VALID,289.876,VALID,23.1314,VALID,6,VALID,0,
2016-10-02, 15:26:04,VALID,919.809,VALID,0,VALID,84.4903,VALID,272.901,VALID,23.0338,VALID,344,VALID,0,
2016-10-02, 15:27:04,VALID,919.839,VALID,0,VALID,87.2881,VALID,235.618,VALID,23.0338,VALID,357,VALID,0,
2016-10-02, 15:28:04,VALID,919.858,VALID,0,VALID,90.0097,VALID,216.279,VALID,23.0533,VALID,3,VALID,0,
2016-10-02, 15:29:04,VALID,919.901,VALID,0,VALID,83.5069,VALID,202.849,VALID,22.9948,VALID,259,VALID,0,
2016-10-02, 15:30:04,VALID,919.89,VALID,0,VALID,85.6872,VALID,234.222,VALID,22.9167,VALID,263,VALID,0,
2016-10-02, 15:31:04,VALID,919.89,VALID,0,VALID,87.0823,VALID,268.603,VALID,22.9753,VALID,262,VALID,0,
2016-10-02, 15:32:04,VALID,919.876,VALID,0,VALID,88.0581,VALID,250.338,VALID,23.0338,VALID,111,VALID,0,
2016-10-02, 15:33:04,VALID,919.907,VALID,0,VALID,87.2805,VALID,223.478,VALID,23.0533,VALID,18,VALID,0,
2016-10-02, 15:34:04,VALID,919.899,VALID,0,VALID,87.1433,VALID,208.866,VALID,23.0143,VALID,2,VALID,0,
2016-10-02, 15:35:04,VALID,919.927,VALID,0,VALID,89.9716,VALID,222.403,VALID,23.016,VALID,1,VALID,0,
2016-10-02, 15:36:04,VALID,919.927,VALID,0,VALID,87.898,VALID,253.454,VALID,23.0746,VALID,342,VALID,0,
2016-10-02, 15:37:04,VALID,919.917,VALID,0,VALID,85.7024,VALID,243.354,VALID,23.0746,VALID,259,VALID,0,
2016-10-02, 15:38:04,VALID,919.911,VALID,0,VALID,87.0518,VALID,262.156,VALID,23.1722,VALID,280,VALID,0,
2016-10-02, 15:39:04,VALID,919.876,VALID,0,VALID,85.6415,VALID,381.094,VALID,23.2502,VALID,8,VALID,1.78086,
2016-10-02, 15:40:04,VALID,919.857,VALID,0,VALID,83.9719,VALID,371.531,VALID,23.1917,VALID,349,VALID,1.81641,
2016-10-02, 15:41:04,VALID,919.863,VALID,0,VALID,83.7813,VALID,303.736,VALID,23.1331,VALID,342,VALID,0,
2016-10-02, 15:42:04,VALID,919.865,VALID,0,VALID,86.9679,VALID,346.713,VALID,23.1314,VALID,5,VALID,0,
2016-10-02, 15:43:04,VALID,919.842,VALID,0,VALID,84.5361,VALID,344.886,VALID,23.229,VALID,319,VALID,0,
2016-10-02, 15:44:04,VALID,919.856,VALID,0,VALID,83.9643,VALID,373.573,VALID,23.3265,VALID,24,VALID,0,
2016-10-02, 15:45:04,VALID,919.862,VALID,0,VALID,83.4917,VALID,309.968,VALID,23.4667,VALID,49,VALID,0,
2016-10-02, 15:46:04,VALID,919.902,VALID,0,VALID,83.7432,VALID,267.099,VALID,23.6211,VALID,27,VALID,0,
2016-10-02, 15:47:04,VALID,919.901,VALID,0,VALID,81.0826,VALID,236.371,VALID,23.6584,VALID,342,VALID,0,
2016-10-02, 15:48:04,VALID,919.881,VALID,0,VALID,81.7535,VALID,279.132,VALID,23.5998,VALID,349,VALID,0,
2016-10-02, 15:49:04,VALID,919.854,VALID,0,VALID,82.1347,VALID,471.882,VALID,23.5412,VALID,349,VALID,1.85312,
2016-10-02, 15:50:04,VALID,919.842,VALID,0,VALID,84.9553,VALID,543.008,VALID,23.465,VALID,26,VALID,1.67461,
2016-10-02, 15:51:04,VALID,919.847,VALID,0,VALID,83.2553,VALID,779.378,VALID,23.6016,VALID,8,VALID,0.00507812,
2016-10-02, 15:52:04,VALID,919.831,VALID,0,VALID,81.1284,VALID,569.438,VALID,23.8944,VALID,335,VALID,0,
2016-10-02, 15:53:04,VALID,919.849,VALID,0,VALID,81.1589,VALID,461.782,VALID,24.1854,VALID,4,VALID,0,
2016-10-02, 15:54:04,VALID,919.862,VALID,0,VALID,78.7118,VALID,451.79,VALID,24.3611,VALID,17,VALID,0,
2016-10-02, 15:55:04,VALID,919.866,VALID,0,VALID,77.37,VALID,364.333,VALID,24.4978,VALID,300,VALID,0,
2016-10-02, 15:56:04,VALID,919.822,VALID,0,VALID,76.9431,VALID,356.705,VALID,24.3611,VALID,4,VALID,2.30742,
2016-10-02, 15:57:04,VALID,919.861,VALID,0,VALID,78.5364,VALID,492.51,VALID,24.0488,VALID,299,VALID,0.0328125,
2016-10-02, 15:58:04,VALID,919.869,VALID,0,VALID,79.9239,VALID,273.438,VALID,24.0097,VALID,358,VALID,1.4832,
2016-10-02, 15:59:04,VALID,919.899,VALID,0,VALID,80.7777,VALID,562.777,VALID,24.0878,VALID,331,VALID,0.113281,
2016-10-02, 16:00:04,VALID,919.883,VALID,0,VALID,79.5199,VALID,596.406,VALID,24.1269,VALID,11,VALID,0.967969,
2016-10-02, 16:01:04,VALID,919.886,VALID,0,VALID,78.1629,VALID,373.358,VALID,24.2635,VALID,275,VALID,0,
2016-10-02, 16:02:04,VALID,919.913,VALID,0,VALID,77.5454,VALID,250.23,VALID,24.4374,VALID,272,VALID,0,
2016-10-02, 16:03:04,VALID,919.944,VALID,0,VALID,77.027,VALID,373.573,VALID,24.6326,VALID,270,VALID,0,
2016-10-02, 16:04:04,VALID,919.927,VALID,0,VALID,76.8593,VALID,380.342,VALID,24.5954,VALID,247,VALID,0,
2016-10-02, 16:05:04,VALID,919.94,VALID,0,VALID,78.1248,VALID,499.924,VALID,24.5155,VALID,59,VALID,0.165625,
2016-10-02, 16:06:04,VALID,919.931,VALID,0,VALID,78.2162,VALID,728.881,VALID,24.5759,VALID,353,VALID,1.58672,
2016-10-02, 16:07:04,VALID,919.957,VALID,0,VALID,78.4602,VALID,572.876,VALID,24.654,VALID,343,VALID,0,
2016-10-02, 16:08:04,VALID,919.943,VALID,0,VALID,76.7754,VALID,431.806,VALID,24.8083,VALID,325,VALID,0,
2016-10-02, 16:09:04,VALID,919.926,VALID,0,VALID,74.5265,VALID,453.724,VALID,24.9255,VALID,316,VALID,0,
2016-10-02, 16:10:04,VALID,919.947,VALID,0,VALID,74.1072,VALID,408.169,VALID,24.8474,VALID,46,VALID,0.107813,
2016-10-02, 16:11:04,VALID,919.975,VALID,0,VALID,74.3664,VALID,222.188,VALID,24.8474,VALID,14,VALID,0,
2016-10-02, 16:12:04,VALID,919.948,VALID,0,VALID,75.792,VALID,216.816,VALID,24.8083,VALID,255,VALID,0,
2016-10-02, 16:13:04,VALID,919.953,VALID,0,VALID,76.3333,VALID,236.371,VALID,24.7479,VALID,12,VALID,0,
2016-10-02, 16:14:04,VALID,919.949,VALID,0,VALID,73.9014,VALID,370.887,VALID,24.7693,VALID,250,VALID,0,
2016-10-02, 16:15:04,VALID,919.99,VALID,0,VALID,75.1059,VALID,171.369,VALID,24.6912,VALID,253,VALID,0.05625,
2016-10-02, 16:16:04,VALID,919.966,VALID,0,VALID,74.8619,VALID,183.509,VALID,24.5136,VALID,41,VALID,1.50703,
2016-10-02, 16:17:04,VALID,920.021,VALID,0,VALID,76.6382,VALID,424.93,VALID,24.2989,VALID,331,VALID,2.19531,
2016-10-02, 16:18:04,VALID,919.985,VALID,0,VALID,76.7602,VALID,266.347,VALID,24.1037,VALID,280,VALID,0,
2016-10-02, 16:19:04,VALID,920.001,VALID,0,VALID,77.9647,VALID,264.305,VALID,24.1232,VALID,213,VALID,0.838672,
2016-10-02, 16:20:04,VALID,919.984,VALID,0,VALID,76.8745,VALID,225.519,VALID,24.1641,VALID,204,VALID,0.859766,
2016-10-02, 16:21:04,VALID,919.99,VALID,0,VALID,77.9037,VALID,389.904,VALID,24.2031,VALID,284,VALID,0,
2016-10-02, 16:22:04,VALID,919.989,VALID,0,VALID,77.7817,VALID,663.127,VALID,24.2421,VALID,26,VALID,0,
2016-10-02, 16:23:04,VALID,919.974,VALID,0,VALID,77.5301,VALID,673.763,VALID,24.3593,VALID,3,VALID,0,
2016-10-02, 16:24:04,VALID,919.897,VALID,0,VALID,75.7081,VALID,661.408,VALID,24.2421,VALID,270,VALID,0.711328,
2016-10-02, 16:25:04,VALID,919.946,VALID,0,VALID,77.5301,VALID,539.032,VALID,24.0469,VALID,251,VALID,0.0417969,
2016-10-02, 16:26:04,VALID,919.93,VALID,0,VALID,77.553,VALID,459.096,VALID,24.1836,VALID,352,VALID,0.832812,
2016-10-02, 16:27:04,VALID,919.938,VALID,0,VALID,77.0956,VALID,404.623,VALID,24.3806,VALID,338,VALID,0,
2016-10-02, 16:28:04,VALID,919.941,VALID,0,VALID,78.3458,VALID,497.667,VALID,24.4178,VALID,29,VALID,0.527344,
2016-10-02, 16:29:04,VALID,919.941,VALID,0,VALID,76.966,VALID,228.205,VALID,24.5545,VALID,2,VALID,0,
2016-10-02, 16:30:04,VALID,920.018,VALID,0,VALID,76.3866,VALID,594.687,VALID,24.5545,VALID,353,VALID,0.554688,
2016-10-02, 16:31:04,VALID,919.948,VALID,0,VALID,74.4655,VALID,640.779,VALID,24.6131,VALID,69,VALID,0.00195313,
2016-10-02, 16:32:04,VALID,919.952,VALID,0,VALID,75.9597,VALID,619.935,VALID,24.6716,VALID,344,VALID,0,
2016-10-02, 16:33:04,VALID,919.949,VALID,0,VALID,74.5189,VALID,624.448,VALID,24.7693,VALID,303,VALID,0.177734,
2016-10-02, 16:34:04,VALID,919.946,VALID,0,VALID,74.5494,VALID,619.828,VALID,24.7283,VALID,128,VALID,0,
2016-10-02, 16:35:04,VALID,919.943,VALID,0,VALID,76.6458,VALID,685.689,VALID,24.9078,VALID,111,VALID,0,
2016-10-02, 16:36:04,VALID,919.915,VALID,0,VALID,74.3588,VALID,694.929,VALID,25.1012,VALID,42,VALID,3.58047,
2016-10-02, 16:37:04,VALID,919.988,VALID,0,VALID,71.9422,VALID,819.561,VALID,25.1598,VALID,12,VALID,1.31211,
2016-10-02, 16:38:04,VALID,920.015,VALID,0,VALID,73.9243,VALID,281.926,VALID,25.0621,VALID,336,VALID,0.551172,
2016-10-02, 16:39:04,VALID,920.008,VALID,0,VALID,74.6485,VALID,851.256,VALID,24.8083,VALID,297,VALID,0,
2016-10-02, 16:40:04,VALID,920.015,VALID,0,VALID,75.1898,VALID,912.498,VALID,24.7693,VALID,268,VALID,0,
2016-10-02, 16:41:04,VALID,920.008,VALID,0,VALID,74.1453,VALID,577.389,VALID,24.9821,VALID,282,VALID,0,
2016-10-02, 16:42:04,VALID,920.045,VALID,0,VALID,73.6727,VALID,594.257,VALID,25.0621,VALID,260,VALID,0.502344,
2016-10-02, 16:43:04,VALID,920.01,VALID,0,VALID,74.9534,VALID,877.794,VALID,24.9645,VALID,271,VALID,0.00351562,
2016-10-02, 16:44:04,VALID,920.024,VALID,0,VALID,72.8494,VALID,318.778,VALID,24.9645,VALID,313,VALID,0.714063,
2016-10-02, 16:45:04,VALID,920.006,VALID,0,VALID,74.3207,VALID,382.598,VALID,24.7869,VALID,299,VALID,0.149219,
2016-10-02, 16:46:04,VALID,920.008,VALID,0,VALID,74.9839,VALID,645.077,VALID,24.7674,VALID,189,VALID,0,
2016-10-02, 16:47:04,VALID,919.966,VALID,0,VALID,74.7781,VALID,734.038,VALID,24.8259,VALID,310,VALID,1.12539,
2016-10-02, 16:48:04,VALID,919.938,VALID,0,VALID,75.022,VALID,259.47,VALID,24.8455,VALID,247,VALID,0,
2016-10-02, 16:49:04,VALID,919.961,VALID,0,VALID,76.44,VALID,268.925,VALID,24.9236,VALID,344,VALID,0.578125,
2016-10-02, 16:50:04,VALID,919.951,VALID,0,VALID,72.7274,VALID,300.943,VALID,24.904,VALID,290,VALID,0.894141,
2016-10-02, 16:51:04,VALID,919.924,VALID,0,VALID,73.7337,VALID,595.976,VALID,24.865,VALID,352,VALID,0,
2016-10-02, 16:52:04,VALID,920.004,VALID,0,VALID,73.4592,VALID,539.677,VALID,24.9626,VALID,346,VALID,0,
2016-10-02, 16:53:04,VALID,919.914,VALID,0,VALID,72.5139,VALID,721.897,VALID,25.1188,VALID,192,VALID,0.403125,
2016-10-02, 16:54:04,VALID,919.891,VALID,0,VALID,73.3068,VALID,290.521,VALID,25.236,VALID,356,VALID,2.47422,
2016-10-02, 16:55:04,VALID,919.929,VALID,0,VALID,74.1072,VALID,224.23,VALID,25.0798,VALID,7,VALID,2.38477,
2016-10-02, 16:56:04,VALID,919.979,VALID,0,VALID,74.5113,VALID,198.874,VALID,24.9431,VALID,268,VALID,0.561719,
2016-10-02, 16:57:04,VALID,919.981,VALID,0,VALID,74.8772,VALID,200.378,VALID,24.8045,VALID,303,VALID,0,
2016-10-02, 16:58:04,VALID,919.93,VALID,0,VALID,73.5355,VALID,853.298,VALID,24.7479,VALID,309,VALID,0,
2016-10-02, 16:59:04,VALID,919.904,VALID,0,VALID,74.3969,VALID,869.521,VALID,24.7655,VALID,166,VALID,0.0359375,
2016-10-02, 17:00:04,VALID,919.985,VALID,0,VALID,73.8557,VALID,903.473,VALID,25.0602,VALID,6,VALID,0.49375,
2016-10-02, 17:01:04,VALID,919.921,VALID,0,VALID,70.2345,VALID,636.052,VALID,25.1383,VALID,264,VALID,1.61563,
2016-10-02, 17:02:04,VALID,919.912,VALID,0,VALID,73.8404,VALID,198.444,VALID,25.1774,VALID,28,VALID,0.928125,
2016-10-02, 17:03:04,VALID,919.902,VALID,0,VALID,71.8659,VALID,171.584,VALID,25.2945,VALID,14,VALID,0.488672,
2016-10-02, 17:04:04,VALID,919.929,VALID,0,VALID,71.6296,VALID,234.222,VALID,25.3141,VALID,27,VALID,0.276563,
2016-10-02, 17:05:04,VALID,919.908,VALID,0,VALID,72.27,VALID,343.274,VALID,25.236,VALID,360,VALID,1.21055,
2016-10-02, 17:06:04,VALID,919.924,VALID,0,VALID,74.374,VALID,902.506,VALID,25.0212,VALID,14,VALID,1.3082,
2016-10-02, 17:07:04,VALID,919.925,VALID,0,VALID,76.4629,VALID,909.06,VALID,24.9998,VALID,24,VALID,1.46797,
2016-10-02, 17:08:04,VALID,919.915,VALID,0,VALID,74.8086,VALID,842.554,VALID,25.275,VALID,6,VALID,0.0289063,
2016-10-02, 17:09:04,VALID,919.922,VALID,0,VALID,74.1453,VALID,259.578,VALID,25.5269,VALID,262,VALID,0,
2016-10-02, 17:10:04,VALID,919.926,VALID,0,VALID,70.631,VALID,275.909,VALID,25.5679,VALID,202,VALID,0.120703,
2016-10-02, 17:11:04,VALID,919.929,VALID,0,VALID,72.0946,VALID,853.298,VALID,25.7241,VALID,64,VALID,0.805469,
2016-10-02, 17:12:04,VALID,919.912,VALID,0,VALID,71.9117,VALID,862.108,VALID,25.9389,VALID,30,VALID,0.873828,
2016-10-02, 17:13:04,VALID,919.917,VALID,0,VALID,71.5381,VALID,698.153,VALID,26.1323,VALID,56,VALID,0.307422,
2016-10-02, 17:14:04,VALID,919.949,VALID,0,VALID,70.2498,VALID,795.387,VALID,26.3471,INVALID,360,VALID,0.0121094,
2016-10-02, 17:15:04,VALID,919.846,VALID,0,VALID,69.6247,VALID,531.511,VALID,26.4838,VALID,10,VALID,1.33164,
2016-10-02, 17:16:04,VALID,919.888,VALID,0,VALID,68.2219,VALID,825.363,VALID,26.2514,VALID,268,VALID,0.55,
2016-10-02, 17:17:04,VALID,919.838,VALID,0,VALID,70.6691,VALID,838.041,VALID,26.0757,VALID,29,VALID,0.926562,
2016-10-02, 17:18:04,VALID,919.849,VALID,0,VALID,70.7072,VALID,821.065,VALID,26.1733,VALID,12,VALID,0.817578,
2016-10-02, 17:19:04,VALID,919.755,VALID,0,VALID,69.2664,VALID,476.287,VALID,26.1147,VALID,35,VALID,1.60898,
2016-10-02, 17:20:04,VALID,919.726,VALID,0,VALID,68.3897,VALID,613.167,VALID,26.0171,VALID,14,VALID,3.3543,
2016-10-02, 17:21:04,VALID,919.758,VALID,0,VALID,69.5408,VALID,729.955,VALID,25.978,VALID,31,VALID,0.114844,
2016-10-02, 17:22:04,VALID,919.771,VALID,0,VALID,70.0592,VALID,726.839,VALID,25.9585,VALID,30,VALID,0.340625,
2016-10-02, 17:23:04,VALID,919.78,VALID,0,VALID,69.922,VALID,707.285,VALID,25.9565,VALID,13,VALID,2.03242,
2016-10-02, 17:24:04,VALID,919.798,VALID,0,VALID,68.7403,VALID,755.096,VALID,25.9174,VALID,324,VALID,0.640234,
2016-10-02, 17:25:04,VALID,919.767,VALID,0,VALID,69.4493,VALID,795.709,VALID,25.8022,VALID,17,VALID,2.50156,
2016-10-02, 17:26:04,VALID,919.761,VALID,0,VALID,70.5166,VALID,804.412,VALID,25.5269,VALID,343,VALID,1.16758,
2016-10-02, 17:27:04,VALID,919.758,VALID,0,VALID,72.6969,VALID,728.881,VALID,25.5074,VALID,28,VALID,1.93008,
2016-10-02, 17:28:04,VALID,919.755,VALID,0,VALID,72.3843,VALID,738.658,VALID,25.646,VALID,14,VALID,1.53281,
2016-10-02, 17:29:04,VALID,919.742,VALID,0,VALID,71.8659,VALID,768.204,VALID,25.6265,VALID,9,VALID,1.46641,
2016-10-02, 17:30:04,VALID,919.773,VALID,0,VALID,73.6422,VALID,806.238,VALID,25.4683,VALID,3,VALID,1.46367,
2016-10-02, 17:31:04,VALID,919.734,VALID,0,VALID,71.0807,VALID,788.511,VALID,25.4879,VALID,356,VALID,0.466797,
2016-10-02, 17:32:04,VALID,919.745,VALID,0,VALID,68.8699,VALID,801.833,VALID,25.4879,VALID,285,VALID,2.06758,
2016-10-02, 17:33:04,VALID,919.713,VALID,0,VALID,72.331,VALID,801.404,VALID,25.3512,VALID,25,VALID,2.18906,
2016-10-02, 17:34:04,VALID,919.771,VALID,0,VALID,69.6247,VALID,625.307,VALID,25.4879,VALID,24,VALID,1.60898,
2016-10-02, 17:35:04,VALID,919.745,VALID,0,VALID,69.1825,VALID,794.635,VALID,25.7222,VALID,351,VALID,0,
2016-10-02, 17:36:04,VALID,919.736,VALID,0,VALID,66.9107,VALID,792.808,VALID,25.976,VALID,344,VALID,0.739062,
2016-10-02, 17:37:04,VALID,919.677,VALID,0,VALID,67.8941,VALID,815.908,VALID,26.1518,VALID,22,VALID,0,
2016-10-02, 17:38:04,VALID,919.625,VALID,0,VALID,69.4951,VALID,826.115,VALID,26.4643,VALID,14,VALID,0.426562,
2016-10-02, 17:39:04,VALID,919.648,VALID,0,VALID,68.0924,VALID,419.665,VALID,26.601,VALID,7,VALID,0.943359,
2016-10-02, 17:40:04,VALID,919.675,VALID,0,VALID,67.8103,VALID,926.143,VALID,26.6791,VALID,75,VALID,0.0128906,
2016-10-02, 17:41:04,VALID,919.615,VALID,0,VALID,65.6452,VALID,903.473,VALID,26.6185,VALID,236,VALID,1.45195,
2016-10-02, 17:42:04,VALID,919.605,VALID,0,VALID,66.0188,VALID,901.431,VALID,26.6185,VALID,36,VALID,0.923828,
2016-10-02, 17:43:04,VALID,919.575,VALID,0,VALID,66.156,VALID,660.333,VALID,26.6771,VALID,324,VALID,0.932422,
2016-10-02, 17:44:04,VALID,919.582,VALID,0,VALID,69.4265,VALID,630.142,VALID,26.7357,VALID,1,VALID,1.10547,
2016-10-02, 17:45:04,VALID,919.639,VALID,0,VALID,66.0112,VALID,923.349,VALID,26.6771,VALID,343,VALID,0.698828,
2016-10-02, 17:46:04,VALID,919.611,VALID,0,VALID,66.8802,VALID,904.332,VALID,26.6791,VALID,20,VALID,1.23984,
2016-10-02, 17:47:04,VALID,919.674,VALID,0,VALID,65.2183,VALID,826.33,VALID,26.7357,VALID,64,VALID,0.000390625,
2016-10-02, 17:48:04,VALID,919.6,VALID,0,VALID,64.5551,VALID,767.452,VALID,26.6401,VALID,26,VALID,0.0046875,
2016-10-02, 17:49:04,VALID,919.636,VALID,0,VALID,66.865,VALID,761.113,VALID,26.4838,VALID,29,VALID,0,
2016-10-02, 17:50:04,VALID,919.625,VALID,0,VALID,68.6565,VALID,897.349,VALID,26.601,VALID,60,VALID,0,
2016-10-02, 17:51:04,VALID,919.566,VALID,0,VALID,67.4215,VALID,875.43,VALID,26.7573,VALID,243,VALID,0,
2016-10-02, 17:52:04,VALID,919.575,VALID,0,VALID,64.5093,VALID,889.613,VALID,27.0112,VALID,340,VALID,0.825391,
2016-10-02, 17:53:04,VALID,919.595,VALID,0,VALID,65.9959,VALID,220.039,VALID,27.0112,VALID,54,VALID,1.2668,
2016-10-02, 17:54:04,VALID,919.536,VALID,0,VALID,63.2515,VALID,205.32,VALID,26.9135,VALID,287,VALID,1.11602,
2016-10-02, 17:55:04,VALID,919.576,VALID,0,VALID,66.0112,VALID,771.965,VALID,26.7377,VALID,36,VALID,0,
2016-10-02, 17:56:04,VALID,919.492,VALID,0,VALID,65.6986,VALID,668.714,VALID,26.894,VALID,37,VALID,0,
2016-10-02, 17:57:04,VALID,919.491,VALID,0,VALID,67.3453,VALID,672.689,VALID,26.7963,VALID,4,VALID,0.517187,
2016-10-02, 17:58:04,VALID,919.502,VALID,0,VALID,64.3416,VALID,753.807,VALID,26.5619,VALID,343,VALID,2.08711,
2016-10-02, 17:59:04,VALID,919.556,VALID,0,VALID,66.0569,VALID,718.352,VALID,26.3471,VALID,49,VALID,0.687109,
2016-10-02, 18:00:04,VALID,919.493,VALID,0,VALID,64.8219,VALID,694.929,VALID,26.308,VALID,300,VALID,0.875,
2016-10-02, 18:01:04,VALID,919.514,VALID,0,VALID,65.7062,VALID,763.477,VALID,26.0541,VALID,356,VALID,1.25586,
2016-10-02, 18:02:04,VALID,919.492,VALID,0,VALID,70.8139,VALID,954.722,VALID,26.0932,VALID,9,VALID,2.26523,
2016-10-02, 18:03:04,VALID,919.424,VALID,0,VALID,68.9004,VALID,548.487,VALID,26.4252,VALID,34,VALID,1.81211,
2016-10-02, 18:04:04,VALID,919.417,VALID,0,VALID,63.808,VALID,591.464,VALID,26.7357,VALID,12,VALID,3.4707,
2016-10-02, 18:05:04,VALID,919.443,VALID,0,VALID,66.6744,VALID,715.021,VALID,26.4838,VALID,1,VALID,0.879297,
2016-10-02, 18:06:04,VALID,919.378,VALID,0,VALID,65.6376,VALID,542.793,VALID,26.4037,VALID,355,VALID,0.641797,
2016-10-02, 18:07:04,VALID,919.385,VALID,0,VALID,65.9044,VALID,1052.71,VALID,26.4623,VALID,146,VALID,0.0164062,
2016-10-02, 18:08:04,VALID,919.348,VALID,0,VALID,64.2806,VALID,691.814,VALID,26.5209,VALID,130,VALID,0.0121094,
2016-10-02, 18:09:04,VALID,919.359,VALID,0,VALID,63.686,VALID,400.003,VALID,26.6791,VALID,289,VALID,0.486719,
2016-10-02, 18:10:04,VALID,919.276,VALID,0,VALID,66.1331,VALID,354.663,VALID,26.3666,VALID,24,VALID,1.97109,
2016-10-02, 18:11:04,VALID,919.329,VALID,0,VALID,66.9107,VALID,350.688,VALID,26.0346,VALID,30,VALID,0.864453,
2016-10-02, 18:12:04,VALID,919.353,VALID,0,VALID,66.4381,VALID,998.558,VALID,25.9545,VALID,342,VALID,2.78672,